Location: Killam
(52.7910°N, 111.8608°W)
Time: 08:46:17
(UTC+00:00)

NOAA 15 - Pass Details

Date: 15 December 2025
Orbit: 793 x 809 km, 98.5° (Epoch: 24 January)

Event Time Altitude Azimuth Distance (km) Brightness Sun altitude
Rises 01:52:07 0° 170° (S) 3,315 7.8 -22.7°
Reaches altitude 10° 01:54:28 10° 172° (S) 2,386 7.0 -23.1°
Maximum altitude 01:59:44 71° 256° (WSW) 856 4.8 -23.9°
Drops below altitude 10° 02:05:02 10° 341° (NNW) 2,394 7.2 -24.7°
Sets 02:07:23 0° 344° (NNW) 3,327 7.9 -25.0°
